Time,TemperatureF,DewpointF,PressureIn,WindDirection,WindDirectionDegrees,WindSpeedMPH,WindSpeedGustMPH,Humidity,HourlyPrecipIn,Conditions,Clouds,dailyrainin,SoftwareType,DateUTC
2013-12-28 00:01:00,25.7,24.0,30.24,South,180,0.0,-999.0,93,-99.99,,,0.00,Acu-Link.com,2013-12-28 05:01:00,
2013-12-28 00:17:00,25.7,23.7,30.23,South,180,0.0,-999.0,92,-99.99,,,0.00,Acu-Link.com,2013-12-28 05:17:00,
2013-12-28 00:32:00,25.7,24.0,30.23,South,180,0.0,-999.0,93,-99.99,,,0.00,Acu-Link.com,2013-12-28 05:32:00,
2013-12-28 00:47:00,25.5,23.8,30.22,South,180,0.0,-999.0,93,-99.99,,,0.00,Acu-Link.com,2013-12-28 05:47:00,
2013-12-28 01:03:00,25.2,23.5,30.22,South,180,0.0,-999.0,93,-99.99,,,0.00,Acu-Link.com,2013-12-28 06:03:00,
2013-12-28 01:18:00,25.2,23.7,30.21,South,180,0.0,-999.0,94,-99.99,,,0.00,Acu-Link.com,2013-12-28 06:18:00,
2013-12-28 01:33:00,24.8,23.3,30.21,South,180,0.0,-999.0,94,-99.99,,,0.00,Acu-Link.com,2013-12-28 06:33:00,
2013-12-28 01:48:00,24.3,22.3,30.20,South,180,0.0,-999.0,92,-99.99,,,0.00,Acu-Link.com,2013-12-28 06:48:00,
2013-12-28 02:04:00,24.1,22.6,30.21,South,180,0.0,-999.0,94,-99.99,,,0.00,Acu-Link.com,2013-12-28 07:04:00,
2013-12-28 02:19:00,24.3,22.8,30.22,South,180,0.0,-999.0,94,-99.99,,,0.00,Acu-Link.com,2013-12-28 07:19:00,
2013-12-28 02:34:00,23.9,22.4,30.21,South,180,0.0,-999.0,94,-99.99,,,0.00,Acu-Link.com,2013-12-28 07:34:00,
2013-12-28 02:49:00,23.9,22.4,30.22,South,180,0.0,-999.0,94,-99.99,,,0.00,Acu-Link.com,2013-12-28 07:49:00,
2013-12-28 03:04:00,23.5,22.0,30.21,South,180,0.0,-999.0,94,-99.99,,,0.00,Acu-Link.com,2013-12-28 08:04:00,
2013-12-28 03:19:00,23.0,21.3,30.21,South,180,0.0,-999.0,93,-99.99,,,0.00,Acu-Link.com,2013-12-28 08:19:00,
2013-12-28 03:35:00,22.8,21.3,30.21,South,180,0.0,-999.0,94,-99.99,,,0.00,Acu-Link.com,2013-12-28 08:35:00,
2013-12-28 03:50:00,22.8,21.3,30.20,South,180,0.0,-999.0,94,-99.99,,,0.00,Acu-Link.com,2013-12-28 08:50:00,
2013-12-28 04:05:00,23.0,21.5,30.20,South,180,0.0,-999.0,94,-99.99,,,0.00,Acu-Link.com,2013-12-28 09:05:00,
2013-12-28 04:21:00,23.0,21.5,30.19,South,180,0.0,-999.0,94,-99.99,,,0.00,Acu-Link.com,2013-12-28 09:21:00,
2013-12-28 04:36:00,22.6,21.1,30.19,South,180,0.0,-999.0,94,-99.99,,,0.00,Acu-Link.com,2013-12-28 09:36:00,
2013-12-28 04:51:00,22.5,21.0,30.19,South,180,0.0,-999.0,94,-99.99,,,0.00,Acu-Link.com,2013-12-28 09:51:00,
2013-12-28 05:06:00,22.5,21.0,30.19,South,180,0.0,-999.0,94,-99.99,,,0.00,Acu-Link.com,2013-12-28 10:06:00,
2013-12-28 05:22:00,22.6,21.1,30.19,South,180,0.0,-999.0,94,-99.99,,,0.00,Acu-Link.com,2013-12-28 10:22:00,
2013-12-28 05:37:00,22.8,21.3,30.19,South,180,0.0,-999.0,94,-99.99,,,0.00,Acu-Link.com,2013-12-28 10:37:00,
2013-12-28 05:52:00,22.5,21.0,30.20,South,180,0.0,-999.0,94,-99.99,,,0.00,Acu-Link.com,2013-12-28 10:52:00,
2013-12-28 06:07:00,22.5,21.0,30.20,South,180,0.0,-999.0,94,-99.99,,,0.00,Acu-Link.com,2013-12-28 11:07:00,
2013-12-28 06:23:00,22.6,21.1,30.22,South,180,0.0,-999.0,94,-99.99,,,0.00,Acu-Link.com,2013-12-28 11:23:00,
2013-12-28 06:38:00,22.3,20.8,30.22,South,180,0.0,-999.0,94,-99.99,,,0.00,Acu-Link.com,2013-12-28 11:38:00,
2013-12-28 06:53:00,22.6,21.1,30.22,South,180,0.0,-999.0,94,-99.99,,,0.00,Acu-Link.com,2013-12-28 11:53:00,
2013-12-28 07:09:00,22.5,21.0,30.21,South,180,0.0,-999.0,94,-99.99,,,0.00,Acu-Link.com,2013-12-28 12:09:00,
2013-12-28 07:24:00,22.3,20.8,30.20,South,180,0.0,-999.0,94,-99.99,,,0.00,Acu-Link.com,2013-12-28 12:24:00,
2013-12-28 07:39:00,22.6,21.1,30.20,South,180,0.0,-999.0,94,-99.99,,,0.00,Acu-Link.com,2013-12-28 12:39:00,
2013-12-28 07:55:00,23.4,21.9,30.21,South,180,0.0,-999.0,94,-99.99,,,0.00,Acu-Link.com,2013-12-28 12:55:00,
2013-12-28 08:10:00,24.1,22.6,30.21,South,180,0.0,-999.0,94,-99.99,,,0.00,Acu-Link.com,2013-12-28 13:10:00,
2013-12-28 08:25:00,25.0,23.5,30.21,South,180,0.0,-999.0,94,-99.99,,,0.00,Acu-Link.com,2013-12-28 13:25:00,
2013-12-28 08:41:00,26.4,24.9,30.20,South,180,0.0,-999.0,94,-99.99,,,0.00,Acu-Link.com,2013-12-28 13:41:00,
2013-12-28 08:56:00,27.5,26.0,30.20,South,180,0.0,-999.0,94,-99.99,,,0.00,Acu-Link.com,2013-12-28 13:56:00,
2013-12-28 09:11:00,29.3,27.3,30.20,South,180,0.0,-999.0,92,-99.99,,,0.00,Acu-Link.com,2013-12-28 14:11:00,
2013-12-28 09:27:00,31.3,27.9,30.20,South,180,0.0,-999.0,87,-99.99,,,0.00,Acu-Link.com,2013-12-28 14:27:00,
2013-12-28 09:42:00,34.0,27.9,30.21,South,180,0.0,-999.0,78,-99.99,,,0.00,Acu-Link.com,2013-12-28 14:42:00,
2013-12-28 09:57:00,36.7,30.2,30.21,South,180,0.0,-999.0,77,-99.99,,,0.00,Acu-Link.com,2013-12-28 14:57:00,
2013-12-28 10:13:00,41.0,30.5,30.22,South,180,2.2,-999.0,66,-99.99,,,0.00,Acu-Link.com,2013-12-28 15:13:00,
2013-12-28 10:28:00,46.9,28.8,30.21,South,180,2.7,-999.0,49,-99.99,,,0.00,Acu-Link.com,2013-12-28 15:28:00,
2013-12-28 10:43:00,49.6,27.5,30.21,SSW,202,1.7,-999.0,42,-99.99,,,0.00,Acu-Link.com,2013-12-28 15:43:00,
2013-12-28 10:59:00,50.7,24.1,30.21,SSW,202,3.2,-999.0,35,-99.99,,,0.00,Acu-Link.com,2013-12-28 15:59:00,
2013-12-28 11:14:00,51.6,22.0,30.20,South,180,4.2,-999.0,31,-99.99,,,0.00,Acu-Link.com,2013-12-28 16:14:00,
2013-12-28 11:29:00,52.3,23.3,30.19,SSW,202,2.2,-999.0,32,-99.99,,,0.00,Acu-Link.com,2013-12-28 16:29:00,
2013-12-28 11:44:00,52.2,24.0,30.18,SSW,202,2.2,-999.0,33,-99.99,,,0.00,Acu-Link.com,2013-12-28 16:44:00,
2013-12-28 11:59:00,53.1,22.5,30.17,SSW,202,2.7,-999.0,30,-99.99,,,0.00,Acu-Link.com,2013-12-28 16:59:00,
2013-12-28 12:15:00,54.5,22.1,30.16,South,180,3.7,-999.0,28,-99.99,,,0.00,Acu-Link.com,2013-12-28 17:15:00,
2013-12-28 12:30:00,54.9,19.8,30.14,SW,225,4.2,-999.0,25,-99.99,,,0.00,Acu-Link.com,2013-12-28 17:30:00,
2013-12-28 12:45:00,54.7,21.4,30.13,SW,225,3.2,-999.0,27,-99.99,,,0.00,Acu-Link.com,2013-12-28 17:45:00,
2013-12-28 13:00:00,54.3,19.2,30.13,SW,225,2.7,-999.0,25,-99.99,,,0.00,Acu-Link.com,2013-12-28 18:00:00,
2013-12-28 13:16:00,53.6,19.6,30.13,SW,225,3.2,-999.0,26,-99.99,,,0.00,Acu-Link.com,2013-12-28 18:16:00,
2013-12-28 13:31:00,54.1,20.9,30.12,SSW,202,2.2,-999.0,27,-99.99,,,0.00,Acu-Link.com,2013-12-28 18:31:00,
2013-12-28 13:46:00,54.3,21.9,30.12,SW,225,1.7,-999.0,28,-99.99,,,0.00,Acu-Link.com,2013-12-28 18:46:00,
2013-12-28 14:02:00,55.0,22.5,30.11,SW,225,1.7,-999.0,28,-99.99,,,0.00,Acu-Link.com,2013-12-28 19:02:00,
2013-12-28 14:17:00,55.6,23.9,30.11,SW,225,0.0,-999.0,29,-99.99,,,0.00,Acu-Link.com,2013-12-28 19:17:00,
2013-12-28 14:32:00,54.9,23.3,30.12,SSW,202,2.2,-999.0,29,-99.99,,,0.00,Acu-Link.com,2013-12-28 19:32:00,
2013-12-28 14:47:00,55.2,25.1,30.12,SW,225,1.1,-999.0,31,-99.99,,,0.00,Acu-Link.com,2013-12-28 19:47:00,
2013-12-28 15:02:00,55.4,24.5,30.12,WSW,247,0.0,-999.0,30,-99.99,,,0.00,Acu-Link.com,2013-12-28 20:02:00,
2013-12-28 15:18:00,54.7,25.4,30.11,SSW,202,1.1,-999.0,32,-99.99,,,0.00,Acu-Link.com,2013-12-28 20:18:00,
2013-12-28 15:33:00,54.9,25.6,30.11,WSW,247,0.0,-999.0,32,-99.99,,,0.00,Acu-Link.com,2013-12-28 20:33:00,
2013-12-28 15:48:00,54.1,25.6,30.10,NE,45,0.0,-999.0,33,-99.99,,,0.00,Acu-Link.com,2013-12-28 20:48:00,
2013-12-28 16:04:00,53.2,28.9,30.09,NE,45,0.0,-999.0,39,-99.99,,,0.00,Acu-Link.com,2013-12-28 21:04:00,
2013-12-28 16:19:00,52.2,28.0,30.08,NE,45,0.0,-999.0,39,-99.99,,,0.00,Acu-Link.com,2013-12-28 21:19:00,
2013-12-28 16:34:00,51.6,31.5,30.08,NE,45,0.0,-999.0,46,-99.99,,,0.00,Acu-Link.com,2013-12-28 21:34:00,
2013-12-28 16:50:00,50.5,28.8,30.08,NE,45,0.0,-999.0,43,-99.99,,,0.00,Acu-Link.com,2013-12-28 21:50:00,
2013-12-28 17:05:00,48.9,33.5,30.09,NE,45,0.0,-999.0,55,-99.99,,,0.00,Acu-Link.com,2013-12-28 22:05:00,
2013-12-28 17:20:00,47.8,34.6,30.09,NE,45,0.0,-999.0,60,-99.99,,,0.00,Acu-Link.com,2013-12-28 22:20:00,
2013-12-28 17:36:00,46.9,32.0,30.08,NE,45,0.0,-999.0,56,-99.99,,,0.00,Acu-Link.com,2013-12-28 22:36:00,
2013-12-28 17:51:00,46.4,33.7,30.08,NE,45,0.0,-999.0,61,-99.99,,,0.00,Acu-Link.com,2013-12-28 22:51:00,
2013-12-28 18:06:00,45.9,34.0,30.08,NE,45,0.0,-999.0,63,-99.99,,,0.00,Acu-Link.com,2013-12-28 23:06:00,
2013-12-28 18:22:00,45.5,35.9,30.08,NE,45,0.0,-999.0,69,-99.99,,,0.00,Acu-Link.com,2013-12-28 23:22:00,
2013-12-28 18:37:00,44.8,36.3,30.08,NE,45,0.0,-999.0,72,-99.99,,,0.00,Acu-Link.com,2013-12-28 23:37:00,
2013-12-28 18:53:00,44.4,36.6,30.07,NE,45,0.0,-999.0,74,-99.99,,,0.00,Acu-Link.com,2013-12-28 23:53:00,
2013-12-28 19:08:00,44.1,37.4,30.07,NE,45,0.0,-999.0,77,-99.99,,,0.00,Acu-Link.com,2013-12-29 00:08:00,
2013-12-28 19:23:00,43.5,38.1,30.06,NE,45,0.0,-999.0,81,-99.99,,,0.00,Acu-Link.com,2013-12-29 00:23:00,
2013-12-28 19:38:00,43.0,39.1,30.06,NE,45,0.0,-999.0,86,-99.99,,,0.00,Acu-Link.com,2013-12-29 00:38:00,
2013-12-28 19:53:00,42.8,40.4,30.06,NE,45,0.0,-999.0,91,-99.99,,,0.01,Acu-Link.com,2013-12-29 00:53:00,
2013-12-28 20:09:00,42.4,40.8,30.04,NE,45,0.0,-999.0,94,-99.99,,,0.02,Acu-Link.com,2013-12-29 01:09:00,
2013-12-28 20:24:00,42.1,40.5,30.04,NW,315,0.0,-999.0,94,-99.99,,,0.04,Acu-Link.com,2013-12-29 01:24:00,
2013-12-28 20:39:00,41.9,40.3,30.04,NW,315,0.0,-999.0,94,-99.99,,,0.05,Acu-Link.com,2013-12-29 01:39:00,
2013-12-28 20:55:00,41.9,40.3,30.03,NW,315,0.0,-999.0,94,-99.99,,,0.06,Acu-Link.com,2013-12-29 01:55:00,
2013-12-28 21:10:00,41.9,40.3,30.01,NW,315,0.0,-999.0,94,-99.99,,,0.06,Acu-Link.com,2013-12-29 02:10:00,
2013-12-28 21:25:00,41.7,40.1,30.02,NW,315,0.0,-999.0,94,-99.99,,,0.07,Acu-Link.com,2013-12-29 02:25:00,
2013-12-28 21:41:00,41.7,40.1,30.01,NW,315,0.0,-999.0,94,-99.99,,,0.07,Acu-Link.com,2013-12-29 02:41:00,
2013-12-28 21:56:00,41.7,40.1,30.02,NW,315,0.0,-999.0,94,-99.99,,,0.07,Acu-Link.com,2013-12-29 02:56:00,
2013-12-28 22:11:00,41.5,39.9,30.02,NW,315,0.0,-999.0,94,-99.99,,,0.07,Acu-Link.com,2013-12-29 03:11:00,
2013-12-28 22:26:00,41.7,40.1,30.03,NW,315,0.0,-999.0,94,-99.99,,,0.07,Acu-Link.com,2013-12-29 03:26:00,
2013-12-28 22:42:00,41.5,39.9,30.02,NW,315,0.0,-999.0,94,-99.99,,,0.07,Acu-Link.com,2013-12-29 03:42:00,
2013-12-28 22:57:00,41.7,40.1,30.02,NW,315,0.0,-999.0,94,-99.99,,,0.07,Acu-Link.com,2013-12-29 03:57:00,
2013-12-28 23:12:00,41.5,39.9,30.01,NW,315,0.0,-999.0,94,-99.99,,,0.07,Acu-Link.com,2013-12-29 04:12:00,
2013-12-28 23:28:00,41.7,40.1,30.00,NW,315,0.0,-999.0,94,-99.99,,,0.07,Acu-Link.com,2013-12-29 04:28:00,
2013-12-28 23:43:00,41.7,40.1,30.00,NW,315,0.0,-999.0,94,-99.99,,,0.07,Acu-Link.com,2013-12-29 04:43:00,
2013-12-28 23:58:00,41.7,40.1,29.98,NW,315,0.0,-999.0,94,-99.99,,,0.07,Acu-Link.com,2013-12-29 04:58:00,